Shi Jian 11-03

operational
NORAD ID: 37730 Int'l Des: 2011-030 Owner: CASC Country: CN
LEOCIRCULARRETROGRADESSO

Shi Jian 11-03について

説明を読み込み中...

リアルタイム位置

3D地球を読み込み中...

次回通過

高度履歴

Altitude vs Time

uPlot chart will show altitude changes over time

軌道要素

1 37730U 11030A 26061.20565831 .00000977 00000-0 19417-3 0 9998
2 37730 97.9209 29.1830 0008924 20.8302 109.1924 14.64205241781459
Epoch: Mar 2, 2026 • Age: 39 hours

現在のステータス

高度 678.8 km
速度 7.52 km/s
衛星直下点 36.77°N, 1.11°W
打ち上げ日 Jul 6, 2011
運用期間 14.6 years
タイプ other

技術仕様

分類 Payload
質量 300.00 kg
乾燥質量 300.00 kg
総質量 300.00 kg
長さ 1.00 m
直径 1.00 m
スパン 3.00 m
形状 Box + 2 Pan
製造者 DFHZ
バスタイプ CAST-2000
フェーズステータス In Orbit
所有者/国 CASC/CN

大規模コンステレーション

Loading constellations...